ENT8024 LEMH-EPWR

Flight info

Callsign ENT8024
Flight time N/A
Altitude 34000
Route MORSS DCT OKSER DCT NOSTA/N0447F360 DCT TZO/N0445F350 DCT UNIMI DCT MEBEK N871 BEPAS DCT DINOV
Aircraft B38M/M-SDE1FGHILORVWXY/HB1

Departure

Time 2026-05-07 07:04
Airport Menorca Airport (LEMH)

Arrival

Time N/A
Airport Copernicus Wrocław Airport (EPWR)
Time Latitude Longitude Altitude Speed Heading
2026-05-07 06:43 39.86575 4.22431 309 ft 0 kts 98°
2026-05-07 06:53 39.86575 4.22424 308 ft 2 kts 98°
2026-05-07 06:54 39.86578 4.22405 308 ft 2 kts 97°
2026-05-07 06:54 39.86579 4.22385 308 ft 2 kts 98°
2026-05-07 06:54 39.86581 4.22365 308 ft 2 kts 106°
2026-05-07 06:54 39.86590 4.22350 308 ft 2 kts 147°
2026-05-07 06:55 39.86604 4.22344 308 ft 1 kts 182°
2026-05-07 06:55 39.86610 4.22345 308 ft 1 kts 193°
2026-05-07 06:55 39.86613 4.22346 308 ft 0 kts 189°
2026-05-07 06:57 39.86609 4.22345 308 ft 1 kts 189°
2026-05-07 06:58 39.86586 4.22340 308 ft 4 kts 189°
2026-05-07 06:58 39.86548 4.22317 308 ft 7 kts 231°
2026-05-07 06:58 39.86545 4.22226 308 ft 12 kts 274°
2026-05-07 06:58 39.86484 4.22149 308 ft 16 kts 188°
2026-05-07 06:59 39.86358 4.22125 308 ft 18 kts 188°
2026-05-07 06:59 39.86233 4.22100 308 ft 18 kts 188°
2026-05-07 06:59 39.86108 4.22073 308 ft 18 kts 189°
2026-05-07 06:59 39.85984 4.22047 308 ft 18 kts 188°
2026-05-07 07:00 39.85864 4.22023 308 ft 17 kts 188°
2026-05-07 07:00 39.85746 4.21998 308 ft 17 kts 189°
2026-05-07 07:00 39.85628 4.21974 308 ft 16 kts 189°
2026-05-07 07:00 39.85513 4.21950 308 ft 16 kts 188°
2026-05-07 07:01 39.85400 4.21927 308 ft 16 kts 189°
2026-05-07 07:01 39.85285 4.21903 308 ft 16 kts 188°
2026-05-07 07:01 39.85172 4.21881 308 ft 13 kts 189°
2026-05-07 07:01 39.85127 4.21810 308 ft 10 kts 275°
2026-05-07 07:02 39.85137 4.21716 308 ft 10 kts 277°
2026-05-07 07:02 39.85150 4.21655 308 ft 4 kts 314°
2026-05-07 07:02 39.85174 4.21644 308 ft 3 kts 357°
2026-05-07 07:02 39.85184 4.21645 308 ft 0 kts
2026-05-07 07:03 39.85187 4.21645 308 ft 3 kts
2026-05-07 07:03 39.85304 4.21669 308 ft 42 kts 11°
2026-05-07 07:03 39.85806 4.21773 308 ft 103 kts
2026-05-07 07:03 39.86701 4.21956 309 ft 155 kts 10°
2026-05-07 07:04 39.87855 4.22180 598 ft 174 kts
2026-05-07 07:04 39.89062 4.22360 1199 ft 178 kts
2026-05-07 07:04 39.90289 4.22494 1842 ft 181 kts
2026-05-07 07:04 39.91603 4.22726 2060 ft 203 kts 11°
2026-05-07 07:05 39.93050 4.23077 2313 ft 225 kts 11°
2026-05-07 07:05 39.94637 4.23479 2799 ft 238 kts 11°
2026-05-07 07:05 39.96315 4.23903 3278 ft 252 kts 11°
2026-05-07 07:05 39.98020 4.24305 3974 ft 255 kts 10°
2026-05-07 07:06 39.99684 4.25106 4569 ft 261 kts 37°
2026-05-07 07:06 40.00733 4.27008 5282 ft 265 kts 71°
2026-05-07 07:06 40.00790 4.29393 5899 ft 274 kts 104°
2026-05-07 07:06 39.99863 4.31578 6475 ft 283 kts 129°
2026-05-07 07:07 39.98507 4.33419 7140 ft 287 kts 135°
2026-05-07 07:07 39.97045 4.35239 7765 ft 291 kts 135°
2026-05-07 07:07 39.95532 4.36976 8413 ft 294 kts 141°
2026-05-07 07:07 39.93869 4.38477 9058 ft 297 kts 149°
2026-05-07 07:08 39.92179 4.40032 9652 ft 301 kts 130°
2026-05-07 07:08 39.91230 4.42401 10258 ft 301 kts 100°
2026-05-07 07:08 39.91147 4.45198 10424 ft 319 kts 80°
2026-05-07 07:08 39.91634 4.48115 10597 ft 336 kts 72°
2026-05-07 07:09 39.92293 4.51033 11098 ft 343 kts 71°
2026-05-07 07:09 39.92971 4.54032 11667 ft 347 kts 72°
2026-05-07 07:09 39.93635 4.57073 12249 ft 351 kts 72°
2026-05-07 07:09 39.94290 4.60140 12858 ft 354 kts 72°
2026-05-07 07:10 39.95111 4.63162 13409 ft 356 kts 62°
2026-05-07 07:10 39.96385 4.65891 13999 ft 356 kts 50°
2026-05-07 07:10 39.98077 4.68249 14553 ft 357 kts 38°
2026-05-07 07:10 40.00066 4.70104 15107 ft 357 kts 30°
2026-05-07 07:11 40.02191 4.71798 15659 ft 360 kts 29°
2026-05-07 07:11 40.04339 4.73485 16174 ft 363 kts 29°
2026-05-07 07:11 40.06488 4.75171 16702 ft 366 kts 29°
2026-05-07 07:11 40.08692 4.76903 17204 ft 369 kts 29°
2026-05-07 07:12 40.10887 4.78631 17706 ft 371 kts 29°
2026-05-07 07:12 40.13096 4.80372 18182 ft 374 kts 29°
2026-05-07 07:12 40.15320 4.82126 18679 ft 376 kts 28°
2026-05-07 07:12 40.17556 4.83891 19159 ft 378 kts 28°
2026-05-07 07:13 40.19810 4.85671 19628 ft 380 kts 28°
2026-05-07 07:13 40.22062 4.87450 20081 ft 382 kts 28°
2026-05-07 07:13 40.24324 4.89238 20537 ft 384 kts 28°
2026-05-07 07:13 40.26622 4.91057 20979 ft 385 kts 28°
2026-05-07 07:14 40.28907 4.92867 21411 ft 387 kts 28°
2026-05-07 07:14 40.31208 4.94691 21838 ft 388 kts 28°
2026-05-07 07:14 40.33499 4.96508 22254 ft 390 kts 27°
2026-05-07 07:14 40.35818 4.98350 22668 ft 391 kts 27°
2026-05-07 07:15 40.38140 5.00195 23071 ft 392 kts 27°
2026-05-07 07:15 40.40473 5.02050 23469 ft 393 kts 27°
2026-05-07 07:15 40.42790 5.03895 23855 ft 394 kts 27°
2026-05-07 07:15 40.45157 5.05781 24210 ft 396 kts 27°
2026-05-07 07:16 40.47515 5.07660 24538 ft 398 kts 27°
2026-05-07 07:16 40.49854 5.09526 24880 ft 400 kts 27°
2026-05-07 07:16 40.52256 5.11443 25199 ft 402 kts 27°
2026-05-07 07:16 40.54643 5.13351 25517 ft 404 kts 27°
2026-05-07 07:17 40.57026 5.15256 25821 ft 406 kts 27°
2026-05-07 07:17 40.59446 5.17193 26128 ft 408 kts 27°
2026-05-07 07:17 40.61843 5.19114 26410 ft 410 kts 27°
2026-05-07 07:17 40.64296 5.21081 26711 ft 411 kts 27°
2026-05-07 07:18 40.66709 5.23016 26987 ft 413 kts 27°
2026-05-07 07:18 40.69184 5.25004 27260 ft 415 kts 27°
2026-05-07 07:18 40.71607 5.26952 27533 ft 416 kts 27°
2026-05-07 07:18 40.74093 5.28952 27796 ft 418 kts 27°
2026-05-07 07:19 40.76559 5.30938 28049 ft 420 kts 27°
2026-05-07 07:19 40.79061 5.32953 28307 ft 421 kts 27°
2026-05-07 07:19 40.81537 5.34950 28547 ft 423 kts 27°
2026-05-07 07:19 40.84048 5.36978 28795 ft 424 kts 27°
2026-05-07 07:20 40.86572 5.39017 29024 ft 426 kts 27°
2026-05-07 07:20 40.89076 5.41042 29261 ft 427 kts 27°
2026-05-07 07:20 40.91614 5.43096 29484 ft 429 kts 27°
2026-05-07 07:20 40.94147 5.45148 29700 ft 430 kts 27°
2026-05-07 07:21 40.96704 5.47222 29923 ft 431 kts 26°
2026-05-07 07:21 40.99239 5.49278 30134 ft 433 kts 26°
2026-05-07 07:21 41.01823 5.51378 30341 ft 434 kts 26°
2026-05-07 07:21 41.04395 5.53469 30542 ft 435 kts 26°
2026-05-07 07:22 41.06940 5.55540 30754 ft 436 kts 25°
2026-05-07 07:22 41.09534 5.57653 31009 ft 436 kts 25°
2026-05-07 07:22 41.12104 5.59750 31264 ft 436 kts 25°
2026-05-07 07:22 41.14698 5.61868 31541 ft 435 kts 25°
2026-05-07 07:23 41.17235 5.63941 31812 ft 435 kts 25°
2026-05-07 07:23 41.19809 5.66047 32057 ft 435 kts 25°
2026-05-07 07:23 41.22378 5.68152 32301 ft 434 kts 25°
2026-05-07 07:23 41.24936 5.70250 32556 ft 433 kts 25°
2026-05-07 07:24 41.27497 5.72352 32793 ft 433 kts 25°
2026-05-07 07:24 41.30054 5.74452 33021 ft 432 kts 25°
2026-05-07 07:24 41.32604 5.76549 33244 ft 432 kts 25°
2026-05-07 07:24 41.35120 5.78619 33476 ft 431 kts 25°
2026-05-07 07:25 41.40203 5.82807 33902 ft 430 kts 25°
2026-05-07 07:25 41.42754 5.84910 33997 ft 432 kts 25°
2026-05-07 07:26 41.47823 5.89096 33992 ft 430 kts 25°
2026-05-07 07:26 41.52894 5.93296 33993 ft 427 kts 25°
2026-05-07 07:27 41.57923 5.97465 33993 ft 428 kts 25°
2026-05-07 07:27 41.62952 6.01641 33993 ft 429 kts 25°
2026-05-07 07:28 41.68008 6.05848 33993 ft 429 kts 25°
2026-05-07 07:28 41.73062 6.10062 33993 ft 429 kts 25°
2026-05-07 07:29 41.78107 6.14275 33993 ft 429 kts 25°
2026-05-07 07:29 41.83132 6.18481 33993 ft 428 kts 25°
2026-05-07 07:30 41.88177 6.22710 33993 ft 428 kts 25°
2026-05-07 07:30 41.93201 6.26930 33993 ft 429 kts 25°
2026-05-07 07:31 41.98231 6.31163 33993 ft 429 kts 25°
2026-05-07 07:31 42.03288 6.35400 33992 ft 428 kts 23°
2026-05-07 07:32 42.08415 6.39393 33993 ft 426 kts 22°
2026-05-07 07:32 42.13543 6.43317 33993 ft 427 kts 22°
2026-05-07 07:33 42.18635 6.47204 33993 ft 427 kts 22°
2026-05-07 07:33 42.23634 6.51018 33993 ft 426 kts 22°
2026-05-07 07:34 42.28771 6.54939 33993 ft 426 kts 22°
2026-05-07 07:34 42.33939 6.58890 33993 ft 426 kts 22°
2026-05-07 07:35 42.39070 6.62818 33993 ft 426 kts 22°
2026-05-07 07:35 42.44207 6.66758 33993 ft 426 kts 22°
2026-05-07 07:36 42.49334 6.70699 33993 ft 427 kts 22°
2026-05-07 07:36 42.54493 6.74671 33993 ft 427 kts 22°
2026-05-07 07:37 42.59629 6.78632 33992 ft 426 kts 22°
2026-05-07 07:37 42.64749 6.82588 33988 ft 427 kts 22°
2026-05-07 07:38 42.69888 6.86567 33981 ft 427 kts 22°
2026-05-07 07:38 42.75048 6.90568 33973 ft 427 kts 22°
2026-05-07 07:39 42.80182 6.94557 33968 ft 427 kts 22°
2026-05-07 07:39 42.85310 6.98550 33966 ft 427 kts 22°
2026-05-07 07:40 42.90455 7.02563 33965 ft 426 kts 22°
2026-05-07 07:40 42.95575 7.06563 33966 ft 429 kts 22°
2026-05-07 07:41 43.00803 7.10652 33966 ft 435 kts 22°
2026-05-07 07:41 43.06074 7.14783 33967 ft 441 kts 23°
2026-05-07 07:42 43.11391 7.18963 33964 ft 441 kts 23°
2026-05-07 07:42 43.16692 7.23140 33966 ft 440 kts 23°
2026-05-07 07:43 43.21956 7.27296 33965 ft 440 kts 23°
2026-05-07 07:43 43.27252 7.31485 33966 ft 440 kts 23°
2026-05-07 07:44 43.32543 7.35677 33966 ft 440 kts 23°
2026-05-07 07:44 43.37828 7.39875 33966 ft 440 kts 23°
2026-05-07 07:45 43.43121 7.44086 33966 ft 441 kts 23°
2026-05-07 07:45 43.48382 7.48281 33966 ft 441 kts 23°
2026-05-07 07:46 43.53701 7.52531 33965 ft 440 kts 24°
2026-05-07 07:46 43.58951 7.56734 33965 ft 440 kts 23°
2026-05-07 07:47 43.64228 7.60967 33966 ft 441 kts 23°
2026-05-07 07:47 43.69518 7.65220 33965 ft 441 kts 24°
2026-05-07 07:48 43.74800 7.69475 33966 ft 441 kts 24°
2026-05-07 07:48 43.80099 7.73752 33966 ft 441 kts 24°
2026-05-07 07:49 43.85158 7.78541 33966 ft 445 kts 29°
2026-05-07 07:49 43.90191 7.83475 33966 ft 445 kts 29°
2026-05-07 07:50 43.95250 7.88421 33966 ft 444 kts 29°
2026-05-07 07:50 44.00284 7.93341 33966 ft 444 kts 29°
2026-05-07 07:51 44.05323 7.98268 33966 ft 444 kts 29°
2026-05-07 07:51 44.10347 8.03188 33966 ft 444 kts 29°
2026-05-07 07:52 44.15394 8.08138 33966 ft 444 kts 29°
2026-05-07 07:52 44.20422 8.13078 33965 ft 445 kts 29°
2026-05-07 07:53 44.25476 8.18054 33966 ft 445 kts 29°
2026-05-07 07:53 44.30501 8.23011 33966 ft 445 kts 29°
2026-05-07 07:54 44.35548 8.28001 33965 ft 444 kts 29°
2026-05-07 07:54 44.40560 8.32967 33966 ft 444 kts 29°
2026-05-07 07:55 44.45592 8.37962 33965 ft 445 kts 29°
2026-05-07 07:55 44.50629 8.42974 33966 ft 445 kts 29°
2026-05-07 07:56 44.55640 8.47971 33966 ft 445 kts 29°
2026-05-07 07:56 44.60693 8.53020 33966 ft 445 kts 29°
2026-05-07 07:57 44.65685 8.58019 33966 ft 445 kts 29°
2026-05-07 07:57 44.70736 8.63089 33966 ft 446 kts 29°
2026-05-07 07:58 44.75741 8.68122 33966 ft 445 kts 29°
2026-05-07 07:58 44.80754 8.73174 33966 ft 445 kts 29°
2026-05-07 07:59 44.85812 8.78284 33969 ft 446 kts 30°
2026-05-07 07:59 44.90819 8.83352 33970 ft 446 kts 29°
2026-05-07 08:00 44.95837 8.88443 33967 ft 446 kts 30°
2026-05-07 08:00 45.00843 8.93535 33976 ft 444 kts 29°
2026-05-07 08:01 45.05846 8.98636 33985 ft 442 kts 29°
2026-05-07 08:01 45.10817 9.03713 33992 ft 442 kts 28°
2026-05-07 08:02 45.15758 9.08771 33993 ft 440 kts 28°
2026-05-07 08:02 45.20671 9.13816 33992 ft 438 kts 28°
2026-05-07 08:03 45.25623 9.18909 33993 ft 438 kts 28°
2026-05-07 08:03 45.30537 9.23969 33992 ft 438 kts 28°
2026-05-07 08:04 45.35466 9.29059 33993 ft 438 kts 28°
2026-05-07 08:04 45.40406 9.34171 33993 ft 439 kts 28°
2026-05-07 08:05 45.45308 9.39254 33994 ft 439 kts 28°
2026-05-07 08:05 45.49921 9.44049 33993 ft 439 kts 28°
2026-05-07 08:06 45.54857 9.49190 33992 ft 438 kts 28°
2026-05-07 08:06 45.59658 9.54533 33994 ft 442 kts 32°
2026-05-07 08:07 45.64371 9.60225 33993 ft 443 kts 32°
2026-05-07 08:07 45.68643 9.65314 33992 ft 443 kts 32°
2026-05-07 08:08 45.73121 9.70606 33992 ft 441 kts 32°
2026-05-07 08:08 45.77850 9.76169 33993 ft 442 kts 32°
2026-05-07 08:09 45.82596 9.81747 33993 ft 442 kts 32°
2026-05-07 08:09 45.87395 9.87388 33992 ft 443 kts 31°
2026-05-07 08:10 45.92182 9.93024 33992 ft 442 kts 31°
2026-05-07 08:10 45.96804 9.98477 33997 ft 443 kts 31°
2026-05-07 08:11 46.01619 10.04166 34005 ft 444 kts 31°
2026-05-07 08:11 46.06447 10.09886 34014 ft 442 kts 31°
2026-05-07 08:12 46.10961 10.15242 34021 ft 442 kts 32°
2026-05-07 08:12 46.15631 10.20796 34020 ft 442 kts 31°
2026-05-07 08:13 46.20523 10.26627 34020 ft 443 kts 31°
2026-05-07 08:13 46.24934 10.31893 34021 ft 444 kts 31°
2026-05-07 08:14 46.28597 10.36278 34019 ft 443 kts 31°
2026-05-07 08:14 46.33143 10.41732 34019 ft 441 kts 31°
2026-05-07 08:15 46.37928 10.47482 34021 ft 442 kts 31°
2026-05-07 08:15 46.42754 10.53297 34021 ft 442 kts 31°
2026-05-07 08:16 46.47545 10.59082 34018 ft 443 kts 31°
2026-05-07 08:16 46.52211 10.64732 34012 ft 442 kts 31°
2026-05-07 08:17 46.56541 10.69985 34006 ft 443 kts 32°
2026-05-07 08:17 46.60820 10.75188 33999 ft 444 kts 32°
2026-05-07 08:18 46.65541 10.80942 33994 ft 443 kts 32°
2026-05-07 08:18 46.70365 10.86837 33992 ft 439 kts 32°
2026-05-07 08:19 46.75077 10.92613 33993 ft 434 kts 31°
2026-05-07 08:19 46.79739 10.98342 33993 ft 430 kts 31°
2026-05-07 08:20 46.84333 11.04002 33992 ft 424 kts 31°
2026-05-07 08:20 46.88906 11.09498 33994 ft 419 kts 27°
2026-05-07 08:21 46.93619 11.14524 33993 ft 420 kts 26°
2026-05-07 08:21 46.98382 11.19574 33993 ft 421 kts 25°
2026-05-07 08:22 47.03115 11.24603 33993 ft 422 kts 25°
2026-05-07 08:22 47.07881 11.29681 33993 ft 423 kts 25°
2026-05-07 08:23 47.12231 11.34328 33992 ft 423 kts 25°
2026-05-07 08:23 47.16959 11.39388 33993 ft 423 kts 25°
2026-05-07 08:24 47.21848 11.44633 33993 ft 423 kts 25°
2026-05-07 08:24 47.26631 11.49775 33993 ft 422 kts 25°
2026-05-07 08:25 47.31412 11.54928 33992 ft 422 kts 25°
2026-05-07 08:25 47.36187 11.60084 33993 ft 423 kts 25°
2026-05-07 08:26 47.43305 11.67797 33993 ft 423 kts 26°
2026-05-07 08:26 47.48095 11.73003 33992 ft 423 kts 25°
2026-05-07 08:27 47.52820 11.78149 33993 ft 424 kts 25°
2026-05-07 08:27 47.57574 11.83338 33993 ft 424 kts 26°
2026-05-07 08:28 47.62316 11.88525 33993 ft 424 kts 25°
2026-05-07 08:28 47.67020 11.93683 33992 ft 423 kts 25°
2026-05-07 08:29 47.71739 11.98869 33993 ft 424 kts 25°
2026-05-07 08:29 47.76472 12.04082 33994 ft 424 kts 25°
2026-05-07 08:30 47.81205 12.09306 33995 ft 424 kts 25°
2026-05-07 08:30 47.85909 12.14511 33993 ft 424 kts 25°
2026-05-07 08:31 47.90633 12.19751 33992 ft 424 kts 25°
2026-05-07 08:31 47.95373 12.25021 33993 ft 423 kts 25°
2026-05-07 08:32 48.00063 12.30248 33998 ft 423 kts 25°
2026-05-07 08:32 48.04761 12.35494 34004 ft 423 kts 26°
2026-05-07 08:33 48.09484 12.40781 34010 ft 423 kts 26°
2026-05-07 08:33 48.14188 12.46059 34016 ft 423 kts 26°
2026-05-07 08:34 48.18276 12.50656 34019 ft 424 kts 26°
2026-05-07 08:34 48.23006 12.55988 34012 ft 423 kts 26°
2026-05-07 08:35 48.27716 12.61360 34011 ft 423 kts 26°
2026-05-07 08:35 48.32267 12.66529 34012 ft 423 kts 26°
2026-05-07 08:36 48.37036 12.71904 34019 ft 424 kts 26°
2026-05-07 08:36 48.41564 12.77628 34021 ft 432 kts 31°
2026-05-07 08:37 48.45992 12.83765 34020 ft 433 kts 32°
2026-05-07 08:37 48.50400 12.89914 34020 ft 432 kts 32°
2026-05-07 08:38 48.54825 12.96121 34020 ft 433 kts 33°
2026-05-07 08:38 48.59049 13.02632 34020 ft 434 kts 35°
2026-05-07 08:39 48.63257 13.09234 34019 ft 428 kts 34°
2026-05-07 08:39 48.67370 13.15664 34008 ft 423 kts 34°
2026-05-07 08:40 48.71429 13.22000 33987 ft 420 kts 34°
2026-05-07 08:40 48.75497 13.28352 33964 ft 419 kts 34°
2026-05-07 08:41 48.79572 13.34722 33945 ft 421 kts 34°
2026-05-07 08:41 48.83576 13.40995 33939 ft 422 kts 34°
2026-05-07 08:42 48.87638 13.47376 33940 ft 420 kts 33°
2026-05-07 08:42 48.91917 13.53272 33945 ft 411 kts 27°
2026-05-07 08:43 48.96341 13.58704 33940 ft 409 kts 27°
2026-05-07 08:43 49.00776 13.64075 33939 ft 412 kts 26°
2026-05-07 08:44 49.05167 13.69382 33940 ft 418 kts 26°
2026-05-07 08:44 49.09746 13.74925 33941 ft 422 kts 26°
2026-05-07 08:45 49.14175 13.80295 33939 ft 425 kts 26°
2026-05-07 08:45 49.18433 13.85473 33938 ft 424 kts 26°
2026-05-07 08:46 49.21146 13.88777 33938 ft 423 kts 26°